Denton, TX

4:27 PM CDT on August 23, 2016 (GMT -0500)
Denton Municipal

Weather History for KDTO - December, 2012

Change the Weather History Date:

Monday, December 31, 2012

  Actual Average Record
Temperature  
Mean Temperature 42 °F -  
Max Temperature 48 °F 53 °F 73 °F (2005)
Min Temperature 37 °F 31 °F 19 °F (2013)
Degree Days  
Heating Degree Days 22    
Moisture  
Dew Point 40 °F    
Average Humidity 93    
Maximum Humidity 100    
Minimum Humidity 68    
Precipitation  
Precipitation 0.36 in - - ()
Sea Level Pressure  
Sea Level Pressure 30.06 in    
Wind  
Wind Speed 7 mph (East)    
Max Wind Speed 24 mph    
Max Gust Speed 30 mph    
Visibility 4 miles    
Events Rain    
Averages and records for this station are not official NWS values.
T = Trace of Precipitation, MM = Missing Value Source: NWS Daily Summary

Daily Weather History Graph

Daily Weather History Graph

Search for Another Location

Airport or City:

Trip Planner

Search our weather history database for the weather conditions in past years. The results will help you decide how hot, cold, wet, or windy it might be!

Date:

Astronomy

Dec. 31, 2012 Rise Set
Actual Time 7:32 AM CST 5:32 PM CST
Civil Twilight 7:04 AM CST 5:59 PM CST
Nautical Twilight 6:33 AM CST 6:30 PM CST
Astronomical Twilight 6:03 AM CST 7:00 PM CST
Moon 8:52 PM CST (12/31) 9:24 AM CST (12/31)
Length of Visible Light 10h 54m
Length of Day
10h 00m
Waning Gibbous, 90% of the Moon is Illuminated
Dec 31
Waning Gibbous
Jan 4
Last Quarter
Jan 11
New
Jan 18
First Quarter
Jan 26
Full

Hourly Weather History & Observations

Time (CST) Temp. Windchill Dew Point Humidity Pressure Visibility Wind Dir Wind Speed Gust Speed Precip Events Conditions
12:53 AM 39.9 °F 33.9 °F 30.0 °F 68% 30.20 in 10.0 mi SSE 9.2 mph - 0.00 in   Overcast
1:48 AM 39.2 °F 33.6 °F 30.2 °F 70% 30.18 in 9.0 mi SSE 8.1 mph - 0.01 in Rain Light Rain
1:53 AM 39.0 °F 34.0 °F 30.9 °F 73% 30.18 in 9.0 mi SSE 6.9 mph - 0.01 in Rain Light Rain
2:53 AM 39.9 °F 31.8 °F 33.1 °F 77% 30.16 in 10.0 mi SSE 15.0 mph - 0.02 in Rain Light Rain
3:53 AM 37.9 °F 30.9 °F 36.0 °F 93% 30.15 in 5.0 mi SSE 10.4 mph - 0.03 in Rain Light Rain
4:06 AM 37.4 °F 28.9 °F 35.6 °F 93% 30.13 in 4.0 mi SSE 13.8 mph - 0.02 in Rain Light Rain
4:21 AM 37.4 °F 29.8 °F 35.6 °F 93% 30.12 in 5.0 mi SSE 11.5 mph - 0.04 in Rain Light Rain
4:53 AM 37.9 °F 30.9 °F 36.0 °F 93% 30.08 in 5.0 mi SE 10.4 mph - 0.08 in Rain Light Rain
5:53 AM 37.9 °F 33.5 °F 37.0 °F 97% 30.09 in 6.0 mi SSE 5.8 mph - 0.02 in Rain Light Rain
6:53 AM 37.9 °F 32.7 °F 37.0 °F 97% 30.07 in 5.0 mi SE 6.9 mph - 0.02 in Rain Light Rain
7:53 AM 37.9 °F 26.8 °F 37.0 °F 97% 29.99 in 4.0 mi SE 24.2 mph 29.9 mph 0.01 in Rain Light Rain
8:53 AM 39.0 °F - 37.9 °F 96% 30.06 in 4.0 mi Calm Calm - 0.03 in Rain Light Rain
9:53 AM 39.9 °F - 37.9 °F 93% 30.09 in 3.0 mi Calm Calm - 0.00 in Rain Light Rain
10:13 AM 39.2 °F - 39.2 °F 100% 30.09 in 2.5 mi Calm Calm - 0.02 in Rain Light Rain
10:27 AM 39.2 °F 35.9 °F 39.2 °F 100% 30.10 in 1.8 mi North 4.6 mph - 0.04 in Rain Rain
10:53 AM 39.9 °F 36.7 °F 39.0 °F 97% 30.09 in 1.0 mi North 4.6 mph - 0.08 in Rain Light Rain
11:21 AM 39.2 °F 37.0 °F 39.2 °F 100% 30.08 in 1.2 mi NNE 3.5 mph - 0.04 in Rain Light Rain
11:53 AM 41.0 °F - 39.0 °F 93% 30.07 in 2.0 mi Calm Calm - 0.05 in   Overcast
12:02 PM 39.2 °F 37.0 °F 39.2 °F 100% 30.05 in 1.5 mi East 3.5 mph - N/A   Overcast
12:09 PM 41.0 °F 39.0 °F 39.2 °F 93% 30.05 in 1.5 mi East 3.5 mph - 0.01 in   Overcast
12:21 PM 41.0 °F 39.0 °F 39.2 °F 93% 30.04 in 2.5 mi East 3.5 mph - 0.01 in   Overcast
12:36 PM 42.8 °F 40.1 °F 41.0 °F 93% 30.03 in 4.0 mi ESE 4.6 mph - 0.01 in   Overcast
12:53 PM 43.0 °F 39.5 °F 41.0 °F 93% 30.01 in 4.0 mi ESE 5.8 mph - 0.01 in   Overcast
1:23 PM 44.6 °F 40.7 °F 42.8 °F 93% 29.98 in 5.0 mi SE 6.9 mph - N/A   Overcast
1:53 PM 46.0 °F 41.9 °F 44.1 °F 93% 29.98 in 7.0 mi South 8.1 mph - N/A   Overcast
2:53 PM 46.9 °F - 45.0 °F 93% 29.96 in 8.0 mi South 6.9 mph - N/A   Overcast
3:53 PM 48.9 °F - 46.0 °F 90% 29.97 in 8.0 mi SSW 6.9 mph - N/A   Overcast
4:53 PM 48.9 °F - 46.9 °F 93% 29.97 in 8.0 mi Calm Calm - N/A   Overcast
5:53 PM 48.0 °F - 46.0 °F 93% 29.98 in 7.0 mi Calm Calm - N/A   Overcast
6:53 PM 46.9 °F - 45.0 °F 93% 30.00 in 5.0 mi ENE 4.6 mph - N/A   Overcast
7:30 PM 46.4 °F 44.3 °F 44.6 °F 93% 30.01 in 5.0 mi East 4.6 mph - N/A   Overcast
7:53 PM 46.9 °F - 46.0 °F 97% 30.01 in 5.0 mi Calm Calm - N/A   Overcast
8:42 PM 46.4 °F 42.9 °F 44.6 °F 93% 30.03 in 4.0 mi North 6.9 mph - N/A   Overcast
8:53 PM 46.0 °F 42.5 °F 45.0 °F 96% 30.04 in 4.0 mi NNE 6.9 mph - N/A   Overcast
9:45 PM 44.6 °F 40.7 °F 44.6 °F 100% 30.05 in 4.0 mi North 6.9 mph - N/A   Partly Cloudy
9:53 PM 45.0 °F 40.6 °F 43.0 °F 93% 30.06 in 4.0 mi North 8.1 mph - N/A   Partly Cloudy
10:43 PM 42.8 °F 39.3 °F 42.8 °F 100% 30.06 in 2.5 mi North 5.8 mph - N/A   Clear
10:53 PM 43.0 °F 38.8 °F 42.1 °F 97% 30.06 in 2.5 mi NNW 6.9 mph - N/A   Clear
11:01 PM 42.8 °F 39.3 °F 42.8 °F 100% 30.06 in 3.0 mi North 5.8 mph - N/A   Clear
11:09 PM 42.8 °F 38.6 °F 41.0 °F 93% 30.06 in 3.0 mi North 6.9 mph - N/A   Scattered Clouds
11:17 PM 42.8 °F 38.6 °F 41.0 °F 93% 30.06 in 2.5 mi North 6.9 mph - N/A   Mostly Cloudy
11:24 PM 42.8 °F 39.3 °F 41.0 °F 93% 30.06 in 0.8 mi North 5.8 mph - N/A   Mostly Cloudy
11:40 PM 41.0 °F 37.1 °F 41.0 °F 100% 30.06 in 1.5 mi North 5.8 mph - N/A   Overcast
11:51 PM 41.0 °F 38.0 °F 39.2 °F 93% 30.06 in 2.5 mi NNW 4.6 mph - N/A   Mostly Cloudy
11:53 PM 41.0 °F 39.0 °F 39.9 °F 96% 30.07 in 2.5 mi NNW 3.5 mph - N/A   Scattered Clouds